ラーゲルクヴィスト-カルゼンティ彗星

P/1997 T3 ( Lagerkvist-Carsenty )

English version
Home page
Updated on March 26, 1999

---------------------------------------------------------------------

・ プロフィール

発見日 1997年10月5日
発見光度 18.9等(R)
発見者 Claes-Ingvar Lagerkvist (Uppsala University Observatory)

・ 軌道要素

   The following improved orbital elements by Kenji Muraoka, are
  from 159 observations 1997 Oct. 5 to 1999 Feb. 13, perturbations
  by 9 Planets, Moon and 5 minor planets were taken into account. 
   The mean residual is +/- 0.57 arc seconds.

      Epoch  =  1998 Mar.  8.0  TT       JDT = 2450880.5
          T  =  1998 Mar. 11.28682       +/- 0.01771 (m.e.) TT
       Peri. =  334.20884                +/- 0.00653
       Node  =   63.19888                +/- 0.00762   (2000.0)
       Incl. =    4.83536                +/- 0.00104
          q  =    4.2402556              +/- 0.0000907 AU
          e  =    0.3654377              +/- 0.0000089
          a  =    6.6821738              +/- 0.0001078 AU
          n  =    0.05705943             +/- 0.00000138
          P  =   17.273                  +/- 0.0004181  years
                                        (+/- 0.15 day)

・ 星図

・ 1997年 9月 9日〜2000年 4月26日

・ 光度変化

        m1 = 10.0 + 5 logΔ + 10.0 log r

---------------------------------------------------------------------

軌道要素は村岡健治氏の計算によるものです。
星図は StellaNavigator Ver.2.0 for Windows (アストロアーツ 編著 / アスキー出版局刊) で作成したものです。
光度グラフはComet for Windowsで作成したものです。

---------------------------------------------------------------------

Copyright(C) Seiichi Yoshida (comet@aerith.net). All rights reserved.